Regional Weather Roundup
Issued by NWS Charleston, SC

Current Version | Previous Version | Graphics & Text | Print | Product List | Glossary On
Versions: 1 2 3 4 5 6 7 8 9 10 11 12 13 14 15 16 17 18 19 20 21 22 23 24 25 26 27 28 29 30 31 32 33 34 35 36 37 38 39 40 41 42 43 44 45 46 47 48 49 50
000
ASUS42 KCHS 092225
RWRCHS

REGIONAL WEATHER ROUNDUP
NATIONAL WEATHER SERVICE CHARLESTON SC
600 PM EDT WED JUL 09 2014

NOTE: "FAIR" INDICATES FEW OR NO CLOUDS BELOW 12,000 FEET WITH NO
SIGNIFICANT WEATHER AND/OR OBSTRUCTIONS TO VISIBILITY.

NOT ALL STATIONS ARE QUALITY CONTROLLED BY THE NATIONAL
WEATHER SERVICE. USE DATA WITH CAUTION...ESPECIALLY
DEWPOINT OBSERVATIONS.

SCZ027-030-031-034>040-042>050-092300-
...SOUTH CAROLINA...

CITY           SKY/WX    TMP DP  RH WIND       PRES   REMARKS
N CHARLESTON   MOSUNNY   89  72  56 SW20      30.00S HX  96
WATERFRONT PRK   N/A     84 N/A N/A S15G24      N/A
FORT JOHNSON   NOT AVBL
MOUNT PLEASANT FAIR      86  75  70 S15G23    30.00F HX  95
JOHNS ISLAND   CLEAR     86  73  66 S14G25    30.01S HX  93
PINOPOLIS        N/A     93  66  40 S6G13     29.89R HX  96
MONCKS CORNER    N/A     90  75  62 S9        29.98S HX 100
SUMMERVILLE    FAIR      90  73  58 S9G17     29.99S HX  98
BEAUFORT MCAS  MOSUNNY   89  73  59 SW9G21    29.99F HX  97
BEAUFORT ARPT  NOT AVBL
HILTON HEAD IS MOSUNNY   86  77  74 S7G16     30.02S HX  97
GEORGETOWN     NOT AVBL
WALTERBORO       N/A     84  77  79 SE3       29.99S HX  94
ORANGEBURG     MOSUNNY   93  64  38 S8        29.96F HX  94
BARNWELL       FAIR      93  64  38 SW9       29.96S HX  95
AIKEN          CLOUDY    82  70  65 W15G29    30.04R
MANNING        FAIR      95  55  26 S5        29.96S HX  93
KINGSTREE      NOT AVBL
COLUMBIA       RAIN      80  72  76 NW13      29.99R
SUMTER         PTSUNNY   90  69  50 NW7       29.95S HX  94
FLORENCE       PTSUNNY   95  58  28 VRB6      29.95S HX  94
MYRTLE BEACH   SUNNY     86  73  66 S17G26    29.99R HX  93
N MYRTLE BEACH MOSUNNY   84  76  76 S18       29.99S HX  93

$$

GAZ063-065-086>088-099>101-113>116-118-119-134-136>141-150-092300-
...GEORGIA...

CITY           SKY/WX    TMP DP  RH WIND       PRES   REMARKS
SAVANNAH ARPT  PTSUNNY   88  71  57 S15       29.99S THUNDER HX  94
HUNTER AAF     MOSUNNY   86  73  65 SE9       29.98S HX  93
FORT STEWART   TSTM      84  75  74 NE9       29.97S HX  92
STATESBORO     NOT AVBL
SYLVANIA       CLEAR     92  70  47 S5        29.97F HX  97
CLAXTON        FAIR      93  72  49 CALM      29.97F HX 100
THOMSON        PTSUNNY   76  76 100 S6        30.06S
AUGUSTA-BUSH   PTSUNNY   82  68  62 N22G36    29.98R
AUGUSTA-DANIEL PTSUNNY   81  70  69 NW14G31   30.01R
SWAINSBORO     FAIR      97  66  36 SW5       29.97F HX 100
VIDALIA          N/A     93  64  38 SW6       29.97F HX  95
ALMA           SUNNY     93  62  35 SW7       29.98F HX  93
WAYCROSS       MOSUNNY   96  72  45 SW9       29.99S HX 104
JESUP          NOT AVBL
BRUNSWICK      SUNNY     90  72  55 CALM      30.00F HX  96
SAINT SIMONS     N/A     86  75  69 S13G23    30.01F HX  95

$$

SCZ027-028-034-036>038-045-046-048>050-GAZ119-141-092300-
...LAKE AND SUPPLEMENTAL COASTAL OBSERVATIONS...

STATION/POSITION TIME  TEMP    WIND        PRES    WAVE   SWELL
                       AIR SEA DIR/SP/G            HT/PER HT/PER/DIR
                 (UTC) (F)     (DEG/KT/KT) (MB)    (FT/S) (FT/S/D)
UPR LAKE MARION  NOT AVBL
WINYAH BAY       2200   85     200/ 15     1016.0S
LAKE MURRAY      2100   83     330/  3/ 11 1014.2S
ACE BASIN NERRS  2200   86     170/  2     1016.0S
FORT PULASKI     2200   84 78  160/  9/ 16   N/A
SAPELO ISLAND    2200   89     160/ 15     1017.0S

$$

ANZ835-935-AMZ111-154-330-350-352-354-374-450-454-472-092300-
...C-MAN AND BUOY OBSERVATIONS...

STATION/POSITION TIME  TEMP    WIND        PRES    WAVE   SWELL
                       AIR SEA DIR/SP/G            HT/PER HT/PER/DIR
                 (UTC) (F)     (DEG/KT/KT) (MB)    (FT/S) (FT/S/D)
FOLLY BEACH CMAN 2200   83     200/ 19/ 21 1016.6F
BUOY 41004       2200   82 82  200/ 17/ 19 1015.6F   4/ 9   2/ 9
BUOY 41008       2200   83 84  170/ 16/ 19 1016.1F   3/ 4   2/130/ 9
5E ST. MARYS GA  2200      84                N/A     3/ 3
FRYING PAN BUOY  NOT AVBL
BUOY 41025       2200          320/ 17/ 19 1015.6S   5/ 6
CAPE LOOKOUT NC  2200   83     200/ 18/ 21 1016.1R
BUOY 41002       2145   80 81  200/ 14/ 16 1020.5R   4/ 9   2/120/ 9
BUOY 41010       2200   81 84  190/ 14/ 16 1019.0F   3/ 8   2/130/ 8
BUOY 41012       NOT AVBL
ST AUGUSTINE FL  2200   81     170/ 16/ 17 1018.1F
CAPERS NEARSHORE 2100   83     210/ 17/ 19   N/A
FRIPP NEARSHORE  2100   85     200/ 17/ 19   N/A


$$



USA.gov is the U.S. government's official web portal to all federal, state and local government web resources and services.